This is the latest recevied weather packets stored in our database for station/object KC3ULW-13. If no packets are shown the sender has not sent any weather packets the latest 10 day(s).
| Time | Temp. | Humidity | Pressure | Rain* | Wind** | Luminosity | Snow |
|---|---|---|---|---|---|---|---|
| 1777640195 | 6.67° C | 89% | 1015.9 hPa | 0 mm | - | 108 W/m² | - |
| 1777639891 | 6.67° C | 90% | 1015.9 hPa | 0 mm | - | 111 W/m² | - |
| 1777639588 | 6.67° C | 91% | 1016 hPa | 0 mm | - | 115 W/m² | - |
| 1777639285 | 6.67° C | 92% | 1015.9 hPa | 0 mm | - | 108 W/m² | - |
| 1777638981 | 6.11° C | 92% | 1016 hPa | 0 mm | - | 127 W/m² | - |
| 1777638677 | 5.56° C | 93% | 1015.8 hPa | 0 mm | - | 122 W/m² | - |
| 1777638374 | 5.56° C | 93% | 1016 hPa | 0 mm | - | 118 W/m² | - |
| 1777638070 | 5° C | 93% | 1016 hPa | 0 mm | - | 106 W/m² | - |
| 1777637767 | 5° C | 93% | 1016 hPa | 0 mm | - | 116 W/m² | - |
| 1777637463 | 5° C | 93% | 1016 hPa | 0 mm | - | 75 W/m² | - |
| 1777637161 | 4.44° C | 93% | 1015.9 hPa | 0 mm | - | 89 W/m² | - |
| 1777636857 | 3.89° C | 93% | 1016.3 hPa | 0 mm | - | 69 W/m² | - |
| 1777636552 | 3.89° C | 93% | 1016.1 hPa | 0 mm | - | 44 W/m² | - |
| 1777636249 | 3.89° C | 93% | 1016.1 hPa | 0 mm | - | 41 W/m² | - |
| 1777635949 | 3.89° C | 93% | 1015.9 hPa | 0 mm | - | 49 W/m² | - |
| 1777635645 | 3.89° C | 93% | 1016.1 hPa | 0 mm | - | 47 W/m² | - |
| 1777635342 | 3.33° C | 93% | 1016.2 hPa | 0 mm | - | 71 W/m² | - |
| 1777635039 | 2.78° C | 93% | 1016.4 hPa | 0 mm | - | 67 W/m² | - |
| 1777634735 | 2.78° C | 93% | 1016.2 hPa | 0 mm | - | 40 W/m² | - |
| 1777634433 | 2.78° C | 93% | 1016.2 hPa | 0 mm | - | 37 W/m² | - |
| 1777634129 | 2.78° C | 93% | 1016 hPa | 0 mm | - | 40 W/m² | - |
| 1777633826 | 2.22° C | 93% | 1016.3 hPa | 0 mm | - | 32 W/m² | - |
| 1777633524 | 2.22° C | 93% | 1016 hPa | 0 mm | - | 29 W/m² | - |
| 1777633221 | 2.22° C | 93% | 1016.2 hPa | 0 mm | - | 29 W/m² | - |
| 1777632918 | 2.22° C | 93% | 1016.2 hPa | 0 mm | - | 23 W/m² | - |
* Rain latest hour (hover to see other rain measurements)
** Current wind speed in m/s (hover to see current wind gust speed)